Tracking 19248 objects as of 26-Sep-2018
HD Live streaming from Space Station
objects crossing your sky now

FENGYUN 1C DEB

Track FENGYUN 1C DEB now!
10-day predictions


NORAD ID: 33728
Int'l Code: 1999-025DHR
Perigee: 520.4 km
Apogee: 812.2 km
Inclination: 99.0 °
Period: 97.9 minutes
Semi major axis: 7037 km
RCS: 0.0056 m2 (small)
Launch date: May 10, 1999
Source: People's Republic of China (PRC)
Launch site: Taiyaun Space Center, China (TSC)

Note: This is SATELLITE DEBRIS
aabbcc
Your satellite tracking list
Your tracking list is empty




NASA's NSSDC Master Catalog

Two Line Element Set (TLE):
1 33728U 99025DHR 18267.05274484 +.00000499 +00000-0 +67985-4 0  9997
2 33728 098.9638 349.9340 0207325 186.1587 297.9410 14.70611793594059
Source of the keplerian elements: AFSPC